Location: Castelbiague
(43.0361°N, 0.9246°E)
Time: 14:54:04
(UTC+00:00)

Cosmos 2333 Rocket - Pass Details

Date: 17 June 2021
Orbit: 841 x 861 km, 70.8° (Epoch: 04 August)

Event Time Altitude Azimuth Distance (km) Brightness Sun altitude
Exits shadow 20:55:56 15° 150° (SSE) 2,176 3.7 -11.5°
Maximum altitude 20:59:33 27° 103° (ESE) 1,604 3.2 -12.0°
Drops below altitude 10° 21:04:13 10° 48° (NE) 2,493 4.7 -12.5°
Sets 21:07:01 0° 36° (NE) 3,430 5.6 -12.9°
